星链-5568 (STARLINK-5568 )

导读 | 豆包AI

STARLINK-5568是美国SpaceX公司星链(Starlink)星座的一员,于2023年1月26日发射升空,属于星链第二代组网卫星。它运行在近地轨道(LEO),配备相控阵通信天线与氪离子推进系统,为全球提供高速低延迟卫星互联网接入,重点覆盖地面基础设施缺失的偏远区域,也支持应急通信与移动场景联网,是星链全球覆盖计划的重要组成部分。

基本信息
目录编号:
55372
目录名称:
STARLINK-5568
国际标识:
2023-013AT
轨道中心:
EARTH
卫星名称:
星链-5568
卫星全名:
星链-5568 (STARLINK-5568 )
卫星状态:
在轨 (已飞行1190 天)
发射日期:
2023-01-26 UTC
国别 :
美国 (US)
星等 :
--
轨道信息
数据来源 国际轨道数据
星历时间: 2026-04-30T10:36:27+0800
9小时前
查看轨道信息
半长轴: 6861.193km
偏心率: 0.0000875
轨道倾角: 43.003°
近地点辐角 267.357°
升交点赤经 28.014°
平近点角 92.718°
近地点: 482.455km
远地点: 483.657km
周期: 94.267分钟
每日圈数: 15.275778
详细信息
固有亮度:
5
最大亮度:
2.5
卫星平台:
Starlink v1.5
覆盖范围:
全球
运营商:
太空探索技术公司
运营商所在国:
美国
制造商(研发单位):
太空探索技术公司
制造商所在国:
美国
使用方式:
暂无
卫星简介
星链(Starlink)计划是由太空探索技术公司(SpaceX)提出的一个巨型低轨卫星互联网星座项目,计划在2019年至2024年间在太空搭建由约1.2万颗卫星组成的“星链”网络,其中1584颗将部署在地球上空550千米处的近地轨道,并从2020年开始工作。该卫星仍在工作。
2D轨道图
3D轨道图
轨道高度分析图
轨道倾角分析图
轨道综合分析图
查看轨道综合分析图